[[{"header":{"parameterUnit":"m.s-1","parameterCategory":1,"la1":30.2991,"la2":30.254,"lo1":-89.0895,"lo2":-89.0444,"dy":0.0017,"dx":0.0017,"nx":28,"ny":28,"refTime":"2025-04-05T21:00:00:Z","depth":0,"parameterNumber":2,"parameterNumberName":"U-component_of_WINDS"},"data":[0,0,0,0,0,0,0,0,0,0,0,0,0,0,0,0,0,0,0,0,0,0,0,0,0,0,0,0,0,0,0,0,0,0,0,0,0,0,0,0,0,0,0,0,0,0,0,0,0,0,0,0,0,0,0,0,0,0,-0.3166,-0.3166,0,-0.3229,-0.323,-0.323,-0.3281,-0.3282,-0.3282,-0.3283,-0.3349,-0.335,-0.3352,0,0,0,0,0,0,0,0,0,0,0,0,0,-0.309,-0.3091,-0.3165,-0.3166,-0.3167,-0.3229,-0.323,-0.3231,-0.3281,-0.3282,-0.3282,-0.3283,-0.3349,-0.335,-0.3352,0,0,0,0,0,0,0,0,0,0,0,0,0,-0.3135,-0.3092,-0.3165,-0.32,-0.3203,-0.3229,-0.323,-0.3231,-0.3281,-0.3282,-0.3283,-0.3283,-0.3348,-0.335,-0.3352,-0.3349,0,0,-0.3358,-0.3359,0,0,0,0,0,0,0,0,-0.3132,-0.3138,-0.3194,-0.3197,-0.3202,-0.3248,-0.3228,-0.327,-0.3281,-0.3252,-0.3283,-0.3284,-0.3315,-0.332,-0.333,-0.3352,-0.3355,-0.3358,-0.3359,-0.336,-0.3361,0,0,0,0,0,0,0,-0.3129,-0.3135,-0.3191,-0.3195,-0.3199,-0.3213,-0.322,-0.3236,-0.3278,-0.3254,-0.3258,-0.3265,-0.3317,-0.3328,-0.3332,-0.3356,-0.3358,-0.336,-0.3361,-0.3362,-0.3378,-0.3378,0,0,0,0,0,0,-0.3121,-0.3132,-0.3189,-0.3193,-0.3168,-0.3213,-0.3221,-0.3232,-0.3278,-0.3286,-0.3264,-0.3267,-0.3324,-0.333,-0.3334,-0.3334,-0.336,-0.3362,-0.3363,-0.3379,-0.3378,-0.3377,0,0,0,0,0,0,-0.3119,-0.3125,-0.3186,-0.3164,-0.3172,-0.3214,-0.3226,-0.3233,-0.3244,-0.3286,-0.3294,-0.3267,-0.3325,-0.3332,-0.3345,-0.3337,-0.3363,-0.3365,-0.338,-0.3379,-0.3378,-0.3332,0,0,0,0,0,0,-0.3116,-0.3124,-0.3123,-0.3163,-0.3173,-0.3195,-0.3225,-0.3234,-0.3247,-0.3251,-0.3291,-0.3298,-0.3326,-0.3342,-0.3347,-0.334,-0.3366,-0.3381,-0.3379,-0.3378,-0.3334,-0.3329,-0.3325,0,0,0,0,0,-0.3113,-0.3108,-0.3122,-0.3129,-0.3172,-0.3194,-0.32,-0.3232,-0.3246,-0.3245,-0.3272,-0.3297,-0.3337,-0.3342,-0.3349,-0.3342,-0.3382,-0.338,-0.3378,-0.3336,-0.333,-0.3325,0,0,0,0,0,0,-0.3066,-0.3114,-0.3131,-0.3137,-0.3161,-0.3203,-0.3203,-0.3225,-0.3246,-0.3249,-0.3289,-0.3297,-0.3306,-0.3326,-0.3331,-0.3342,-0.3362,-0.3362,-0.3328,-0.3323,-0.3318,-0.3314,-0.3368,0,0,0,0,0,-0.3056,-0.3069,-0.311,-0.3112,-0.3124,-0.3161,-0.3172,-0.3194,-0.3221,-0.3231,-0.3259,-0.3284,-0.3303,-0.3314,-0.3333,-0.3338,-0.3347,-0.3336,-0.3332,-0.3328,-0.3327,-0.3331,-0.3327,-0.3372,-0.3372,-0.3372,0,0,-0.3036,-0.3064,-0.307,-0.3104,-0.3125,-0.3138,-0.3169,-0.3182,-0.3192,-0.3233,-0.3247,-0.3269,-0.33,-0.3308,-0.3313,-0.3325,-0.3316,-0.3326,-0.3322,-0.3324,-0.3329,-0.3324,-0.332,-0.3371,-0.3371,-0.3371,0,0,-0.3006,-0.3029,-0.3033,-0.3053,-0.3085,-0.311,-0.3111,-0.3149,-0.3164,-0.3179,-0.321,-0.3223,-0.3254,-0.3275,-0.3289,-0.3268,-0.3291,-0.3273,-0.3249,-0.3252,-0.3249,-0.3246,-0.3238,-0.3235,-0.3272,-0.3272,-0.3272,0,-0.2978,-0.2998,-0.3032,-0.3043,-0.3057,-0.3095,-0.31,-0.3118,-0.3154,-0.3164,-0.3176,-0.3215,-0.3239,-0.3253,-0.3248,-0.3258,-0.3261,-0.3269,-0.3247,-0.3244,-0.3242,-0.3235,-0.3232,-0.327,-0.327,-0.327,-0.327,0,-0.2962,-0.2975,-0.2975,-0.3009,-0.3023,-0.303,-0.3066,-0.3077,-0.3098,-0.3122,-0.3137,-0.3166,-0.3192,-0.3197,-0.3218,-0.3214,-0.322,-0.3239,-0.3261,-0.3234,-0.3229,-0.3226,-0.3266,-0.3267,-0.3268,-0.3268,0,0,-0.2904,-0.2956,-0.2955,-0.2971,-0.3008,-0.302,-0.303,-0.3054,-0.3063,-0.3087,-0.3096,-0.3121,-0.3139,-0.3155,-0.3179,-0.3182,-0.3163,-0.3201,-0.3202,-0.3193,-0.3161,-0.3146,-0.3143,-0.3179,-0.3179,-0.3178,-0.3158,0,-0.288,-0.2899,-0.293,-0.2939,-0.2952,-0.2988,-0.2997,-0.3021,-0.3043,-0.3058,-0.3084,-0.3101,-0.3123,-0.3133,-0.3137,-0.3164,-0.3157,-0.3166,-0.3188,-0.3189,-0.3179,-0.314,-0.3125,-0.3104,-0.3156,-0.3156,-0.3156,0,-0.2855,-0.2876,-0.2886,-0.2923,-0.2929,-0.2936,-0.2962,-0.2975,-0.3004,-0.302,-0.3038,-0.3065,-0.3077,-0.3097,-0.3115,-0.3121,-0.3132,-0.3146,-0.3146,-0.315,-0.317,-0.3142,-0.3099,-0.3095,-0.3152,-0.3153,-0.3153,0,-0.2812,-0.2843,-0.2853,-0.2865,-0.2908,-0.2912,-0.293,-0.2959,-0.2972,-0.2995,-0.3004,-0.3027,-0.304,-0.3058,-0.3091,-0.3102,-0.3106,-0.3128,-0.312,-0.3119,-0.3119,-0.3118,-0.3076,-0.3126,-0.3126,-0.3126,-0.3126,0,-0.2782,-0.2787,-0.2834,-0.284,-0.2846,-0.2882,-0.2888,-0.291,-0.2935,-0.2947,-0.298,-0.299,-0.3032,-0.3047,-0.3072,-0.3084,-0.3089,-0.3103,-0.311,-0.31,-0.3098,-0.3108,-0.311,-0.3125,-0.3125,-0.3125,-0.3125,0,-0.2735,-0.2767,-0.278,-0.2819,-0.2829,-0.2832,-0.2866,-0.2874,-0.2899,-0.2913,-0.2918,-0.2957,-0.2976,-0.301,-0.304,-0.3057,-0.3063,-0.3075,-0.3053,-0.3057,-0.3048,-0.3048,-0.301,-0.3007,-0.3058,-0.3057,-0.3057,0,-0.2714,-0.2718,-0.2758,-0.2768,-0.2784,-0.28,-0.2813,-0.2849,-0.2861,-0.2894,-0.2898,-0.292,-0.2939,-0.2969,-0.3,-0.3023,-0.3035,-0.3021,-0.3039,-0.3029,-0.3035,-0.3035,-0.3035,-0.3016,-0.3015,-0.3015,-0.3014,0,-0.2674,-0.2689,-0.2706,-0.2729,-0.2744,-0.2764,-0.2786,-0.2792,-0.2833,-0.2845,-0.2865,-0.288,-0.291,-0.2932,-0.2959,-0.2979,-0.3003,-0.3008,-0.3008,-0.2998,-0.2985,-0.2992,-0.3042,-0.3009,-0.301,-0.301,-0.301,-0.301,-0.2639,-0.2645,-0.2673,-0.2692,-0.2712,-0.2731,-0.274,-0.2766,-0.2783,-0.2809,-0.283,-0.2848,-0.2877,-0.2916,-0.2934,-0.295,-0.2961,-0.296,-0.296,-0.2959,-0.2956,-0.2983,-0.2955,-0.2955,-0.2955,-0.2956,-0.2956,0,-0.2601,-0.2621,-0.2637,-0.2666,-0.2681,-0.2702,-0.2727,-0.2738,-0.2754,-0.2778,-0.2797,-0.282,-0.2841,-0.2874,-0.2898,-0.2904,-0.2916,-0.2909,-0.2909,-0.2913,-0.2944,-0.2942,-0.2899,-0.2899,-0.2899,-0.2899,-0.2899,-0.2899,-0.2582,-0.2593,-0.2611,-0.2632,-0.2653,-0.2671,-0.2683,-0.2702,-0.2721,-0.2745,-0.2763,-0.2784,-0.2812,-0.2838,-0.2858,-0.2868,-0.2875,-0.2865,-0.2877,-0.2906,-0.2911,-0.2916,-0.2914,-0.2866,-0.2866,-0.2845,-0.2845,-0.2845]},{"header":{"parameterUnit":"m.s-1","parameterCategory":1,"la1":30.2991,"la2":30.254,"lo1":-89.0895,"lo2":-89.0444,"dy":0.0017,"dx":0.0017,"nx":28,"ny":28,"refTime":"2025-04-05T21:00:00:Z","depth":0,"parameterNumber":3,"parameterNumberName":"V-component_of_WINDS"},"data":[0,0,0,0,0,0,0,0,0,0,0,0,0,0,0,0,0,0,0,0,0,0,0,0,0,0,0,0,0,0,0,0,0,0,0,0,0,0,0,0,0,0,0,0,0,0,0,0,0,0,0,0,0,0,0,0,0,0,6.7536,6.7538,0,6.7726,6.7728,6.773,6.7742,6.7739,6.7737,6.7735,6.7931,6.7938,6.7945,0,0,0,0,0,0,0,0,0,0,0,0,0,6.7185,6.7191,6.7536,6.7538,6.7541,6.7726,6.7728,6.7731,6.7742,6.7739,6.7737,6.7734,6.7929,6.7937,6.7946,0,0,0,0,0,0,0,0,0,0,0,0,0,6.7352,6.7193,6.7535,6.7568,6.7573,6.7725,6.7728,6.7731,6.7743,6.7739,6.7736,6.7733,6.7926,6.7936,6.7947,6.8079,0,0,6.798,6.7985,0,0,0,0,0,0,0,0,6.7343,6.7365,6.7561,6.7566,6.7572,6.7707,6.7676,6.7848,6.7743,6.7678,6.7735,6.7731,6.7859,6.7875,6.7918,6.8088,6.8097,6.7981,6.7988,6.7992,6.7996,0,0,0,0,0,0,0,6.7331,6.7357,6.7611,6.7564,6.7571,6.7574,6.7595,6.7709,6.7785,6.7684,6.7685,6.7707,6.7861,6.7908,6.7923,6.81,6.7981,6.7991,6.7997,6.8002,6.839,6.8394,0,0,0,0,0,0,6.7313,6.7347,6.7605,6.7617,6.7447,6.7583,6.7606,6.7667,6.7783,6.7798,6.771,6.7707,6.7891,6.791,6.793,6.8094,6.7992,6.8003,6.8009,6.8386,6.8391,6.8395,0,0,0,0,0,0,6.7305,6.7336,6.7597,6.7482,6.7516,6.7593,6.7661,6.7672,6.7718,6.7803,6.7817,6.7743,6.7889,6.7914,6.8042,6.8101,6.8007,6.8017,6.8382,6.8388,6.8393,6.8422,0,0,0,0,0,0,6.7295,6.7333,6.7383,6.7483,6.7522,6.7706,6.7665,6.7678,6.7737,6.7735,6.7838,6.7852,6.7888,6.8026,6.8053,6.8114,6.8026,6.8377,6.8385,6.8391,6.8416,6.8428,6.8438,0,0,0,0,0,6.7282,6.7384,6.7386,6.7417,6.7587,6.771,6.7732,6.7771,6.7741,6.7794,6.7848,6.7849,6.809,6.8039,6.807,6.8135,6.8374,6.8382,6.8391,6.8411,6.8425,6.8438,0,0,0,0,0,0,6.7289,6.7397,6.7401,6.7537,6.7614,6.7711,6.7778,6.7785,6.7872,6.7867,6.7912,6.7936,6.8063,6.8111,6.8053,6.827,6.8228,6.8244,6.8233,6.8248,6.8258,6.8245,6.8035,0,0,0,0,0,6.7306,6.7396,6.7486,6.7598,6.7636,6.77,6.7755,6.7779,6.7861,6.7893,6.7957,6.8037,6.8131,6.8192,6.8283,6.8423,6.8446,6.8483,6.8493,6.8502,6.8515,6.8595,6.8612,6.8423,6.8423,6.8423,0,0,6.7342,6.7413,6.7467,6.7601,6.7663,6.7757,6.7728,6.7827,6.7897,6.7909,6.8034,6.8084,6.8176,6.8311,6.8373,6.8355,6.8572,6.8513,6.8519,6.8528,6.8605,6.8623,6.8639,6.8429,6.8428,6.8427,0,0,6.7457,6.7519,6.7619,6.7683,6.7777,6.7819,6.7843,6.794,6.7974,6.81,6.8111,6.8195,6.8355,6.8421,6.8475,6.8616,6.862,6.8644,6.8701,6.8779,6.8793,6.8807,6.8859,6.8877,6.8656,6.8656,6.8656,0,6.7491,6.7631,6.767,6.7771,6.783,6.7844,6.7947,6.8007,6.8126,6.8167,6.8145,6.8348,6.841,6.8562,6.8596,6.8639,6.8669,6.8633,6.8788,6.8802,6.8815,6.8865,6.8884,6.8659,6.8658,6.8658,6.8658,0,6.7669,6.7766,6.7836,6.7952,6.8019,6.812,6.8175,6.8238,6.8256,6.8301,6.843,6.8506,6.8614,6.8651,6.867,6.8806,6.8792,6.8778,6.8738,6.8835,6.8883,6.8902,6.8662,6.8661,6.8661,6.866,0,0,6.7793,6.7929,6.7955,6.8008,6.8114,6.819,6.8292,6.8397,6.8451,6.8533,6.8621,6.8757,6.8745,6.8807,6.8833,6.89,6.9009,6.8879,6.8882,6.8902,6.9166,6.9177,6.9198,6.9012,6.9016,6.9019,6.9159,0,6.7921,6.8103,6.8141,6.8299,6.839,6.8405,6.8495,6.857,6.8614,6.8699,6.8748,6.8845,6.8821,6.8859,6.8926,6.8981,6.9063,6.8972,6.9096,6.91,6.9074,6.9223,6.9235,6.9364,6.9178,6.9181,6.9183,0,6.8094,6.8181,6.8347,6.8442,6.8482,6.8561,6.8661,6.8741,6.8827,6.8855,6.8925,6.8944,6.9052,6.9006,6.9156,6.9093,6.9146,6.9181,6.9187,6.9202,6.9148,6.9243,6.9405,6.9425,6.9213,6.9211,6.9208,0,6.817,6.8328,6.8449,6.8493,6.8607,6.8663,6.8713,6.8795,6.8856,6.8944,6.8984,6.9083,6.9137,6.9214,6.926,6.9222,6.9408,6.9365,6.9435,6.9434,6.9475,6.9472,6.9649,6.9506,6.9506,6.9506,6.9505,0,6.831,6.8412,6.8485,6.8559,6.8674,6.8717,6.883,6.888,6.8954,6.9039,6.9057,6.9137,6.9192,6.928,6.9316,6.9437,6.9461,6.9487,6.9496,6.9487,6.9484,6.9523,6.9516,6.9511,6.951,6.9509,6.9508,0,6.8415,6.8468,6.86,6.8697,6.8724,6.8804,6.8887,6.8961,6.9005,6.9113,6.9141,6.9212,6.9316,6.9369,6.9499,6.9524,6.966,6.9662,6.9631,6.9635,6.9703,6.9697,6.9914,6.9945,6.9779,6.9781,6.9782,0,6.8501,6.858,6.8685,6.8743,6.8794,6.8888,6.895,6.8996,6.9061,6.9165,6.9226,6.9331,6.9418,6.9584,6.9648,6.9748,6.9754,6.9824,6.977,6.9758,6.9758,6.9753,6.9762,6.9834,6.9835,6.9836,6.9837,0,6.865,6.8672,6.8761,6.886,6.8934,6.9014,6.9093,6.9139,6.9199,6.927,6.9377,6.9444,6.9577,6.9682,6.9787,6.9839,6.985,6.9854,6.9876,6.9868,6.9847,6.9861,6.9659,6.9849,6.9848,6.9847,6.9846,6.9846,6.8749,6.8821,6.8906,6.9005,6.9069,6.9143,6.9217,6.9271,6.9361,6.9473,6.9494,6.9608,6.9693,6.9835,6.9891,6.9981,6.9967,6.9998,7.0006,7.0014,7.0018,6.9831,7.0,7.0,7.0,7.0,6.9999,0,6.89,6.8956,6.9046,6.9157,6.9235,6.9236,6.9324,6.939,6.9489,6.9567,6.9653,6.9776,6.9878,6.995,7.0054,7.0113,7.012,7.0139,7.0136,7.0148,7.0024,6.9996,7.0131,7.0131,7.0131,7.0131,7.0131,7.0131,6.8988,6.9109,6.9142,6.9296,6.9351,6.9462,6.9512,6.9581,6.9644,6.9781,6.9866,6.9912,6.9988,7.0098,7.0192,7.0211,7.0249,7.0268,7.0287,7.0171,7.0157,7.0143,7.0117,7.0276,7.0276,7.0404,7.0405,7.0406]}]]